TimeCST,TemperatureF,Dew PointF,Humidity,Sea Level PressureIn,VisibilityMPH,Wind Direction,Wind SpeedMPH,Gust SpeedMPH,PrecipitationIn,Events,Conditions,WindDirDegrees,DateUTC
12:53 AM,44.1,21.9,42,30.32,10.0,SSW,5.8,-,N/A,,Scattered Clouds,210,2012-12-05 06:53:00
1:53 AM,42.1,21.9,45,30.32,10.0,SSW,5.8,-,N/A,,Scattered Clouds,210,2012-12-05 07:53:00
2:53 AM,42.1,23.0,47,30.32,10.0,SSW,5.8,-,N/A,,Clear,200,2012-12-05 08:53:00
3:53 AM,41.0,23.0,49,30.31,10.0,South,5.8,-,N/A,,Clear,190,2012-12-05 09:53:00
4:53 AM,39.9,23.0,51,30.31,10.0,South,5.8,-,N/A,,Clear,180,2012-12-05 10:53:00
5:53 AM,39.0,23.0,53,30.32,10.0,South,6.9,-,N/A,,Clear,180,2012-12-05 11:53:00
6:53 AM,37.9,23.0,55,30.32,10.0,Calm,Calm,-,N/A,,Partly Cloudy,0,2012-12-05 12:53:00
8:53 AM,44.1,30.9,60,30.31,10.0,SE,8.1,-,N/A,,Overcast,140,2012-12-05 14:53:00
9:53 AM,48.9,28.9,46,30.31,10.0,SE,4.6,-,N/A,,Overcast,140,2012-12-05 15:53:00
10:53 AM,52.0,28.0,40,30.29,10.0,SSE,8.1,-,N/A,,Overcast,160,2012-12-05 16:53:00
11:53 AM,55.0,30.0,38,30.26,10.0,South,8.1,-,N/A,,Overcast,180,2012-12-05 17:53:00
12:53 PM,57.0,28.9,34,30.22,10.0,South,9.2,-,N/A,,Overcast,170,2012-12-05 18:53:00
1:53 PM,57.0,26.1,30,30.19,10.0,South,11.5,-,N/A,,Overcast,190,2012-12-05 19:53:00
2:53 PM,57.9,26.1,30,30.15,10.0,South,16.1,-,N/A,,Overcast,190,2012-12-05 20:53:00
3:53 PM,57.0,27.0,32,30.13,10.0,SSE,12.7,-,N/A,,Mostly Cloudy,160,2012-12-05 21:53:00
4:53 PM,50.0,27.0,41,30.12,10.0,South,9.2,-,N/A,,Mostly Cloudy,170,2012-12-05 22:53:00
5:53 PM,48.0,28.9,48,30.12,10.0,SSE,9.2,-,N/A,,Mostly Cloudy,160,2012-12-05 23:53:00
6:53 PM,51.1,28.9,43,30.09,10.0,SSE,12.7,-,N/A,,Mostly Cloudy,150,2012-12-06 00:53:00
7:53 PM,50.0,28.0,43,30.08,10.0,SSE,11.5,-,N/A,,Mostly Cloudy,160,2012-12-06 01:53:00
8:53 PM,48.0,28.0,46,30.07,10.0,SSE,10.4,-,N/A,,Scattered Clouds,150,2012-12-06 02:53:00
9:53 PM,46.9,28.9,50,30.04,10.0,SSE,11.5,-,N/A,,Partly Cloudy,160,2012-12-06 03:53:00
10:53 PM,48.0,28.0,46,30.02,10.0,South,15.0,-,N/A,,Scattered Clouds,170,2012-12-06 04:53:00
11:53 PM,48.9,28.9,46,30.01,10.0,South,18.4,-,N/A,,Scattered Clouds,180,2012-12-06 05:53:00